Regional Weather Roundup
Issued by NWS Cleveland, OH

Home | Current Version | Previous Version | Graphics & Text | Print | Product List | Glossary On
Versions: 1 2 3 4 5 6 7 8 9 10 11 12 13 14 15 16 17 18 19 20 21 22 23 24 25 26 27 28 29 30 31 32 33 34 35 36 37 38 39 40 41 42 43 44 45 46 47 48 49 50
854
ASUS41 KCLE 251302
RWRCLE
OHIO REGIONAL WEATHER ROUNDUP
NATIONAL WEATHER SERVICE CLEVELAND, OH
900 AM EDT WED APR 25 2018

NOTE: "FAIR" INDICATES FEW OR NO CLOUDS BELOW 12,000 FEET WITH NO
SIGNIFICANT WEATHER AND/OR OBSTRUCTIONS TO VISIBILITY.

OHZ001>008-015>018-024>027-034-035-043-044-251400-
   NORTHWEST OHIO

CITY           SKY/WX    TMP DP  RH WIND       PRES   REMARKS
DEFIANCE       CLOUDY    53  50  89 N12       29.95R
FINDLAY        LGT RAIN  52  49  89 N8        29.91S FOG
TOLEDO EXPRESS CLOUDY    53  52  96 N13       29.93R
TOLEDO EXEC    CLOUDY    52  50  93 N13       29.93R FOG
LIMA           LGT RAIN  51  51 100 N8        29.92R FOG
$$

OHZ009>014-019>023-028>033-038-089-251400-
   NORTHEAST OHIO

CITY           SKY/WX    TMP DP  RH WIND       PRES   REMARKS
CLE-HOPKINS    LGT RAIN  52  51  97 N3        29.89S VSB 1
CLE-LAKEFRONT  LGT RAIN  47  45  93 CALM      29.86S VSB 1
CUY CO. ARPT   DRIZZLE   52  52 100 CALM      29.87S FOG
LORAIN-ELYRIA  CLOUDY    50  46  86 N8        29.88S FOG
ASHTABULA      CLOUDY    51  50  96 CALM      29.86F
AKRON-CANTON   LGT RAIN  52  49  89 N3        29.86S FOG
WOOSTER        FOG       51  51 100 NW3       29.87S VSB 1
MANSFIELD      CLOUDY    50  50 100 NW12      29.88R FOG
YOUNGSTOWN     LGT RAIN  52  49  89 CALM      29.84F
$$

OHZ042-051>053-060>062-070>072-077>081-251400-
  SOUTHWEST OHIO

CITY           SKY/WX    TMP DP  RH WIND       PRES   REMARKS
CINC-COVINGTON CLOUDY    54  50  86 NW8       29.93R
CINC-LUNKEN    CLOUDY    55  51  86 NW6       29.94R
HAMILTON       CLOUDY    54  50  86 NW8       29.95R
DAYTON         CLOUDY    52  52 100 N12       29.93R
WRIGHT-PAT AFB NOT AVBL
DAYTON GENERAL CLOUDY    53  49  86 N9        29.91R
WILMINGTON     CLOUDY    54  52  93 N9        29.90S FOG
$$

OHZ036-037-039>041-045>050-054>059-063>069-073>076-082>088-251400-
  CENTRAL AND SOUTHEAST OHIO

CITY           SKY/WX    TMP DP  RH WIND       PRES   REMARKS
COLUMBUS       DRIZZLE   54  51  90 N8        29.88R FOG
OSU AIRPORT    CLOUDY    52  51  97 NW10      29.89R FOG
BOLTON FIELD   CLOUDY    52  52 100 NW9       29.89S FOG
RICKENBACK AFB NOT AVBL
NEWARK         CLOUDY    54  51  90 NW6       29.87R
MARION         CLOUDY    50  48  93 N9        29.90R FOG
LANCASTER      CLOUDY    54  52  93 NW7       29.89R
ZANESVILLE     CLOUDY    53  50  89 NW8       29.86R
NEW PHILLY     NOT AVBL
$$




USA.gov is the U.S. government's official web portal to all federal, state and local government web resources and services.